Regional Weather Roundup
Issued by NWS

Home | Current Version | Previous Version | Text Only | Print | Product List | Glossary On
Versions: 1 2 3 4 5 6 7 8 9 10 11 12 13 14 15 16 17 18 19 20 21 22 23 24 25 26 27 28 29 30 31 32 33 34 35 36 37 38 39 40 41 42 43 44 45 46 47 48 49 50
000
ASUS42 KFFC 261010
RWRGA
WEATHER ROUNDUP FOR GEORGIA
NATIONAL WEATHER SERVICE PEACHTREE CITY GA
600 AM EDT FRI MAY 26 2017

NOTE: "FAIR" INDICATES FEW OR NO CLOUDS BELOW 12,000 FEET WITH NO
SIGNIFICANT WEATHER AND/OR OBSTRUCTIONS TO VISIBILITY.

* = USE WITH CAUTION. THE STATIONS MARKED WITH AN ASTERISK MAY NOT
REPORT WEATHER SUCH AS PRECIPITATION, FOG, OR THUNDER AND ARE NOT
QUALITY CONTROLLED BY NWS.

THE REMARK "TC" DENOTES TEMPERATURE READING IN DEGREES CELSIUS.

GAZ001>058-261100-
NORTH GEORGIA

CITY           SKY/WX    TMP DP  RH WIND       PRES   REMARKS
ATLANTA        PTCLDY    57  51  80 W5        30.00R
ATHENS         CLEAR     53  52  96 CALM      29.98R
CHAMBLEE       CLEAR     52  50  93 CALM      30.00R
PEACHTREE CITY CLEAR     50  49  96 CALM      30.01R
ROME           CLEAR     51  51 100 N3        29.99R
WEST ATLANTA   CLEAR     55  53  93 CALM      30.00R
GAINESVILLE    CLEAR     54  52  93 SW5       30.01R
CARTERSVILLE   CLEAR     49  49 100 CALM      30.00R


CITY           SKY/WX    TMP DP  RH WIND       PRES   REMARKS
DALTON*        CLEAR     50  50 100 CALM      30.00R
MARIETTA       CLEAR     53  50  89 W5        29.99R
CANTON*        CLEAR     48  45  87 CALM      30.01R
$$

GAZ059>098-102>109-261100-
CENTRAL GEORGIA

CITY           SKY/WX    TMP DP  RH WIND       PRES   REMARKS
AUGUSTA-BUSH   CLEAR     56  52  86 CALM      29.96R
AUGUSTA-DANIEL CLEAR     64  49  57 W7        29.97R
COLUMBUS       CLEAR     55  52  89 CALM      30.00R
MACON          CLEAR     53  52  96 CALM      30.00R
ROBINS AFB     CLEAR     55  54  95 CALM      29.99R


CITY           SKY/WX    TMP DP  RH WIND       PRES   REMARKS
LAGRANGE*      CLEAR     51  51 100 CALM      30.00R
SYLVANIA*      CLEAR     56  56 100 CALM      29.99R
MILLEDGEVILLE* CLEAR     55  55 100 CALM      29.99R
$$

GAZ099>101-110>166-261100-
SOUTH GEORGIA

CITY           SKY/WX    TMP DP  RH WIND       PRES   REMARKS
SAVANNAH       CLEAR     58  52  80 W5        30.00R
VALDOSTA       CLEAR     52  51  97 CALM      30.01R
ALMA           CLEAR     54  52  93 CALM      30.00R
ST SIMONS      CLEAR     63  57  81 W3        30.00R
FT STEWART     CLEAR     56  53  90 CALM      29.97R
ALBANY         CLEAR     57  54  89 CALM      30.02R
HUNTER AFB     CLEAR     58  57  94 CALM      29.98R
MOODY AFB      CLEAR     57  53  87 CALM      30.00R
BRUNSWICK      CLEAR     59  55  88 CALM      30.01R


CITY           SKY/WX    TMP DP  RH WIND       PRES   REMARKS
BAINBRIDGE*    CLEAR     55  54  94 CALM      30.01R
MOULTRIE*      CLEAR     55  55 100 CALM      30.02R
VIDALIA*       CLEAR     55  55 100 CALM      30.00R
WAYCROSS*      CLEAR     57  57 100 SW3       30.02R
DOUGLAS*       CLEAR     55  54  94 CALM      30.02R
$$



USA.gov is the U.S. government's official web portal to all federal, state and local government web resources and services.